Weather History for KPBI - January, 2015

Change the Weather History Date:

Tuesday, January 27, 2015

  Actual Average Record
Temperature  
Mean Temperature 59 °F 66 °F  
Max Temperature 69 °F 75 °F 85 °F (2012)
Min Temperature 49 °F 57 °F 32 °F (1940)
Degree Days  
Heating Degree Days 6 2  
Month to date heating degree days 18 80  
Since 1 July heating degree days 60 151  
Cooling Degree Days 0 4  
Month to date cooling degree days 164 90  
Year to date cooling degree days 164 90  
Growing Degree Days 8 (Base 50)    
Moisture  
Dew Point 43 °F    
Average Humidity 54    
Maximum Humidity 83    
Minimum Humidity 25    
Precipitation  
Precipitation 0.00 in 0.09 in 3.47 in (1980)
Month to date precipitation 1.05 2.76  
Year to date precipitation 1.05 2.76  
Snow  
Snow 0.00 in - - ()
Month to date snowfall 0.0  
Since 1 July snowfall 0.0  
Snow Depth 0.00 in    
Sea Level Pressure  
Sea Level Pressure 30.00 in    
Wind  
Wind Speed 11 mph (West)    
Max Wind Speed 22 mph    
Max Gust Speed 28 mph    
Visibility 10 miles    
Events      
T = Trace of Precipitation, MM = Missing Value Source: NWS Daily Summary

Daily Weather History Graph

Daily Weather History Graph

Search for Another Location

Airport or City:

Trip Planner

Search our weather history database for the weather conditions in past years. The results will help you decide how hot, cold, wet, or windy it might be!

Date:

Astronomy

Jan. 27, 2015 Rise Set
Actual Time 7:07 AM EST 5:58 PM EST
Civil Twilight 6:43 AM EST 6:23 PM EST
Nautical Twilight 6:15 AM EST 6:51 PM EST
Astronomical Twilight 5:47 AM EST 7:18 PM EST
Moon 12:15 PM EST (1/27) 12:42 AM EST (1/27)
Length of Visible Light 11h 39m
Length of Day
10h 51m
First Quarter, 55% of the Moon is Illuminated
Jan 27
First Quarter
Feb 3
Full
Feb 11
Last Quarter
Feb 18
New
Feb 25
First Quarter

Hourly Weather History & Observations

Time (EST) Temp. Dew Point Humidity Pressure Visibility Wind Dir Wind Speed Gust Speed Precip Events Conditions
12:53 AM 55.0 °F 48.0 °F 77% 29.97 in 10.0 mi WNW 9.2 mph - N/A   Clear
1:53 AM 55.0 °F 48.0 °F 77% 29.96 in 10.0 mi WNW 9.2 mph - N/A   Clear
2:53 AM 53.1 °F 48.0 °F 83% 29.96 in 10.0 mi WNW 8.1 mph - N/A   Clear
3:53 AM 52.0 °F 46.0 °F 80% 29.96 in 10.0 mi West 6.9 mph - N/A   Clear
4:53 AM 52.0 °F 46.0 °F 80% 29.97 in 10.0 mi West 6.9 mph - N/A   Clear
5:53 AM 50.0 °F 45.0 °F 83% 29.98 in 10.0 mi NW 10.4 mph - N/A   Partly Cloudy
6:53 AM 51.1 °F 46.0 °F 83% 30.02 in 10.0 mi NW 9.2 mph - N/A   Partly Cloudy
7:53 AM 51.1 °F 41.0 °F 68% 30.03 in 10.0 mi NW 12.7 mph - N/A   Partly Cloudy
8:53 AM 54.0 °F 37.9 °F 55% 30.04 in 10.0 mi NW 12.7 mph - N/A   Partly Cloudy
9:53 AM 57.2 °F 30.2 °F 36% 30.06 in 10.0 mi WNW 11.5 mph - N/A   Partly Cloudy
10:53 AM 60.8 °F 26.6 °F 27% 30.06 in 10.0 mi NW 16.1 mph - N/A   Partly Cloudy
11:53 AM 62.6 °F 26.6 °F 26% 30.04 in 10.0 mi WNW 11.5 mph - N/A   Partly Cloudy
12:53 PM 66.0 °F 30.9 °F 27% 30.00 in 10.0 mi West 16.1 mph 28.8 mph N/A   Partly Cloudy
1:53 PM 66.0 °F 37.9 °F 36% 29.98 in 10.0 mi WNW 17.3 mph 24.2 mph N/A   Partly Cloudy
2:53 PM 66.9 °F 37.9 °F 34% 29.96 in 10.0 mi West 13.8 mph 23.0 mph N/A   Partly Cloudy
3:53 PM 68.0 °F 41.0 °F 37% 29.96 in 10.0 mi West 12.7 mph - N/A   Partly Cloudy
4:53 PM 68.0 °F 42.1 °F 39% 29.96 in 10.0 mi West 11.5 mph - N/A   Partly Cloudy
5:53 PM 66.9 °F 43.0 °F 42% 29.96 in 10.0 mi WSW 10.4 mph - N/A   Partly Cloudy
6:53 PM 64.0 °F 46.0 °F 52% 29.98 in 10.0 mi WSW 13.8 mph - N/A   Partly Cloudy
7:53 PM 63.0 °F 48.9 °F 60% 30.00 in 10.0 mi West 13.8 mph 21.9 mph N/A   Partly Cloudy
8:53 PM 61.0 °F 50.0 °F 67% 30.02 in 10.0 mi WSW 8.1 mph - N/A   Clear
9:53 PM 59.0 °F 51.1 °F 75% 30.02 in 10.0 mi WSW 8.1 mph - N/A   Clear
10:53 PM 57.9 °F 51.1 °F 78% 30.03 in 10.0 mi WSW 6.9 mph - N/A   Scattered Clouds
11:53 PM 57.9 °F 52.0 °F 81% 30.02 in 10.0 mi WSW 6.9 mph - N/A   Partly Cloudy